Point Hope, AK

2:24 AM AKST on November 24, 2017 (GMT -0900)
Point Hope

Weather History for PAPO - July, 2013

Change the Weather History Date:

Saturday, July 27, 2013

  Actual Average Record
Temperature  
Mean Temperature 48 °F -  
Max Temperature 51 °F 48 °F 62 °F (2005)
Min Temperature 46 °F 41 °F 33 °F (2000)
Degree Days  
Heating Degree Days 16    
Moisture  
Dew Point 45 °F    
Average Humidity 88    
Maximum Humidity 93    
Minimum Humidity 76    
Precipitation  
Precipitation 0.00 in - - ()
Sea Level Pressure  
Sea Level Pressure 30.10 in    
Wind  
Wind Speed 19 mph (South)    
Max Wind Speed 28 mph    
Max Gust Speed 31 mph    
Visibility 6 miles    
Events      
Averages and records for this station are not official NWS values.
T = Trace of Precipitation, MM = Missing Value Source: NWS Daily Summary

Daily Weather History Graph

Daily Weather History Graph

Search for Another Location

Airport or City:

Trip Planner

Search our weather history database for the weather conditions in past years. The results will help you decide how hot, cold, wet, or windy it might be!

Date:

Astronomy

Jul. 27, 2013 Rise Set
Actual Time 4:49 AM AKDT 1:32 AM AKDT
Civil Twilight Sun does not rise Sun does not rise
Nautical Twilight Sun does not rise Sun does not rise
Astronomical Twilight Sun does not rise Sun does not rise
Moon 12:12 AM AKDT (7/27) 2:51 PM AKDT (7/27)
Length of Visible Light 24h 00m
Length of Day
20h 42m
Waning Gibbous, 69% of the Moon is Illuminated
Jul 27
Waning Gibbous
Jul 29
Last Quarter
Aug 6
New
Aug 14
First Quarter
Aug 20
Full

Hourly Weather History & Observations

Time (AKDT) Temp. Windchill Dew Point Humidity Pressure Visibility Wind Dir Wind Speed Gust Speed Precip Events Conditions
12:16 AM 51.8 °F - 46.4 °F 82% 30.13 in 10.0 mi South 15.0 mph - N/A   Overcast
12:36 AM 51.8 °F - 46.4 °F 82% 30.14 in 10.0 mi South 15.0 mph - N/A   Overcast
12:56 AM 51.8 °F - 44.6 °F 76% 30.13 in 10.0 mi South 15.0 mph - N/A   Overcast
1:16 AM 51.8 °F - 44.6 °F 76% 30.14 in 10.0 mi SSE 15.0 mph - N/A   Overcast
1:36 AM 50.0 °F - 44.6 °F 82% 30.15 in 10.0 mi SSE 13.8 mph - N/A   Overcast
1:56 AM 50.0 °F - 44.6 °F 82% 30.14 in 10.0 mi SSE 16.1 mph - N/A   Overcast
2:16 AM 50.0 °F - 44.6 °F 82% 30.15 in 10.0 mi South 19.6 mph - N/A   Overcast
2:36 AM 50.0 °F - 44.6 °F 82% 30.14 in 10.0 mi SSE 18.4 mph - N/A   Overcast
2:56 AM 48.2 °F - 44.6 °F 87% 30.14 in 10.0 mi South 20.7 mph - N/A   Overcast
3:16 AM 48.2 °F - 44.6 °F 87% 30.14 in 10.0 mi SSE 19.6 mph - N/A   Overcast
3:36 AM 48.2 °F - 44.6 °F 87% 30.14 in 10.0 mi SSE 21.9 mph - N/A   Overcast
3:56 AM 48.2 °F - 44.6 °F 87% 30.13 in 10.0 mi SSE 18.4 mph - N/A   Overcast
4:16 AM 48.2 °F - 44.6 °F 87% 30.13 in 10.0 mi SSE 20.7 mph - N/A   Overcast
4:36 AM 48.2 °F - 44.6 °F 87% 30.13 in 10.0 mi SSE 21.9 mph - N/A   Overcast
4:56 AM 48.2 °F - 44.6 °F 87% 30.13 in 10.0 mi SSE 20.7 mph - N/A   Overcast
5:36 AM 48.2 °F - 44.6 °F 87% 30.13 in 10.0 mi SSE 19.6 mph - N/A   Overcast
5:56 AM 48.2 °F - 44.6 °F 87% 30.12 in 10.0 mi SSE 18.4 mph - N/A   Overcast
6:16 AM 48.2 °F - 44.6 °F 87% 30.12 in 10.0 mi SSE 19.6 mph - N/A   Overcast
6:36 AM 48.2 °F - 44.6 °F 87% 30.12 in 9.0 mi SSE 19.6 mph - N/A   Overcast
6:56 AM 48.2 °F - 44.6 °F 87% 30.13 in 9.0 mi SSE 18.4 mph - N/A   Overcast
7:16 AM 46.4 °F 39.2 °F 44.6 °F 93% 30.13 in 9.0 mi SSE 18.4 mph - N/A   Overcast
7:36 AM 48.2 °F - 44.6 °F 87% 30.12 in 10.0 mi SSE 20.7 mph - N/A   Overcast
7:56 AM 46.4 °F 39.8 °F 44.6 °F 93% 30.12 in 9.0 mi SSE 16.1 mph - N/A   Overcast
8:16 AM 48.2 °F - 44.6 °F 87% 30.12 in 10.0 mi South 18.4 mph - N/A   Overcast
8:36 AM 48.2 °F - 44.6 °F 87% 30.12 in 10.0 mi SSE 15.0 mph - N/A   Mostly Cloudy
8:56 AM 48.2 °F - 44.6 °F 87% 30.12 in 10.0 mi SSE 16.1 mph - N/A   Scattered Clouds
9:16 AM 46.4 °F 39.8 °F 44.6 °F 93% 30.12 in 10.0 mi South 16.1 mph - N/A   Mostly Cloudy
9:36 AM 48.2 °F - 44.6 °F 87% 30.12 in 10.0 mi South 17.3 mph - N/A   Mostly Cloudy
9:56 AM 48.2 °F - 44.6 °F 87% 30.11 in 10.0 mi South 18.4 mph - N/A   Mostly Cloudy
10:36 AM 48.2 °F - 44.6 °F 87% 30.12 in 10.0 mi South 18.4 mph - N/A   Overcast
10:56 AM 48.2 °F - 44.6 °F 87% 30.11 in 10.0 mi South 19.6 mph - N/A   Overcast
11:16 AM 48.2 °F - 44.6 °F 87% 30.11 in 10.0 mi South 23.0 mph - N/A   Overcast
11:36 AM 48.2 °F - 44.6 °F 87% 30.11 in 9.0 mi South 23.0 mph - N/A   Overcast
11:56 AM 48.2 °F - 44.6 °F 87% 30.11 in 10.0 mi South 23.0 mph - N/A   Overcast
12:16 PM 48.2 °F - 44.6 °F 87% 30.11 in 5.0 mi South 24.2 mph - N/A   Overcast
12:36 PM 48.2 °F - 44.6 °F 87% 30.11 in 1.0 mi South 23.0 mph - N/A   Overcast
12:56 PM 48.2 °F - 44.6 °F 87% 30.11 in 1.0 mi South 23.0 mph - N/A   Overcast
1:16 PM 48.2 °F - 46.4 °F 93% 30.10 in 3.0 mi South 25.3 mph - N/A   Overcast
1:36 PM 48.2 °F - 46.4 °F 93% 30.10 in 2.0 mi South 26.5 mph - N/A   Overcast
1:56 PM 48.2 °F - 46.4 °F 93% 30.10 in 7.0 mi South 25.3 mph - N/A   Overcast
2:16 PM 48.2 °F - 46.4 °F 93% 30.10 in 2.0 mi South 23.0 mph - N/A   Overcast
2:36 PM 50.0 °F - 46.4 °F 87% 30.10 in 3.0 mi South 26.5 mph - N/A   Overcast
2:56 PM 48.2 °F - 46.4 °F 93% 30.09 in 2.0 mi South 26.5 mph - N/A   Overcast
3:16 PM 48.2 °F - 46.4 °F 93% 30.09 in 2.0 mi South 25.3 mph 31.1 mph N/A   Overcast
3:36 PM 48.2 °F - 44.6 °F 87% 30.09 in 2.0 mi South 23.0 mph - N/A   Overcast
3:56 PM 48.2 °F - 46.4 °F 93% 30.09 in 0.5 mi South 24.2 mph - N/A   Overcast
4:16 PM 48.2 °F - 44.6 °F 87% 30.10 in 0.2 mi South 20.7 mph - N/A   Overcast
4:36 PM 48.2 °F - 46.4 °F 93% 30.09 in 0.2 mi South 20.7 mph - N/A   Overcast
4:56 PM 48.2 °F - 46.4 °F 93% 30.09 in 0.2 mi South 24.2 mph - N/A   Overcast
5:16 PM 48.2 °F - 46.4 °F 93% 30.08 in 0.5 mi South 23.0 mph - N/A   Overcast
5:36 PM 50.0 °F - 46.4 °F 87% 30.08 in 1.0 mi South 23.0 mph - N/A   Overcast
5:56 PM 50.0 °F - 46.4 °F 87% 30.08 in 1.0 mi South 21.9 mph - N/A   Overcast
6:16 PM 50.0 °F - 46.4 °F 87% 30.07 in 5.0 mi South 24.2 mph 29.9 mph N/A   Overcast
6:36 PM 48.2 °F - 46.4 °F 93% 30.06 in 1.5 mi South 27.6 mph - N/A   Overcast
6:56 PM 48.2 °F - 46.4 °F 93% 30.06 in 1.5 mi South 23.0 mph - N/A   Overcast
7:16 PM 48.2 °F - 46.4 °F 93% 30.06 in 5.0 mi South 20.7 mph 26.5 mph N/A   Overcast
7:36 PM 48.2 °F - 46.4 °F 93% 30.05 in 7.0 mi South 23.0 mph - N/A   Overcast
7:56 PM 48.2 °F - 46.4 °F 93% 30.05 in 4.0 mi South 24.2 mph - N/A   Overcast
8:16 PM 48.2 °F - 46.4 °F 93% 30.04 in 3.0 mi South 24.2 mph - N/A   Overcast
8:56 PM 50.0 °F - 46.4 °F 87% 30.03 in 1.0 mi South 25.3 mph - N/A   Overcast
9:16 PM 50.0 °F - 46.4 °F 87% 30.03 in 2.0 mi South 24.2 mph - N/A   Overcast
9:36 PM 50.0 °F - 46.4 °F 87% 30.03 in 6.0 mi South 21.9 mph - N/A   Overcast
9:56 PM 48.2 °F - 46.4 °F 93% 30.02 in 1.8 mi South 24.2 mph - N/A   Overcast
10:16 PM 51.8 °F - 46.4 °F 82% 30.02 in 0.2 mi SSE 24.2 mph - N/A   Overcast
10:36 PM 51.8 °F - 48.2 °F 88% 30.02 in 0.5 mi South 25.3 mph - N/A   Overcast
10:56 PM 51.8 °F - 48.2 °F 88% 30.02 in 0.2 mi South 24.2 mph - N/A   Overcast
11:16 PM 51.8 °F - 46.4 °F 82% 30.01 in 0.2 mi South 26.5 mph - N/A   Overcast
11:36 PM 51.8 °F - 46.4 °F 82% 30.01 in 0.2 mi South 24.2 mph - N/A   Overcast
11:56 PM 51.8 °F - 46.4 °F 82% 30.00 in 0.5 mi South 24.2 mph - N/A   Overcast